ATLAS D DEB, 2337

Orbit data source: Space-Track

ATLAS D DEB, 2337 is space debris in LEO originally from a launch on Thu, 14 Jul 1966 UTC launched from the Air Force Western Test Range (AFWTR). Debris objects in space refer to the collection of defunct objects orbiting the Earth. Examples of debris include non-operational satellites, rocket bodies, and fragments generated from explosions, collisions, or faulty payload assembly.

Loading next visibility...
ATLAS D DEB details
Identifier
2337, 1966-063E
Orbit
LEO
Last TLE update17 hours ago
Origin
Flag of USUSAF OAR (US)
ManufacturerUnknown
MissionSpacecraft
Bus & MotorUnknown
Mass9 kg wet, 9 kg dry
Launch date (UTC)
1966-07-14 (58 years ago)
Launch vehicleUnknown
Launch site
Air Force Western Test Range (AFWTR)
Object type
Payload
Rocket body
Debris
Shape & HBRTrunc Cone, 0.7 m
Radar Cross Section0.700 m², Medium (>0.1 m² and < 1m²)

Expand to show TLE details & history

TLE from 17 hours ago
0 ATLAS D DEB
1 02337U 66063E   24355.90024803  .00000395  00000-0  15923-3 0  9991
2 02337 144.2327  56.5578 0005959 243.0232 194.7247 13.72141870927411
Epoch: 2024-12-20T21:36Z
Definitive object data (Epoch: 2024-12-20T21:36:21.429Z)
Latitude34.96816°
Longitude-72.47301°
Altitude996.943 km
Speed7.356 km/s
True Right ascension22h 46m 18s
True Declination34° 48' 43"
Sunlit
Object was in daylight at TLE epoch
Visualization TLE readout
Latitude-31.92949°
Longitude65.30455°
Altitude997.058 km
Speed7.355 km/s
Apparent Right ascension05h 13m 20s
Apparent Declination-47° 05' 49"
Sunlit
Object is in daylight
Visualization observer readout
Local Sidereal Time13:25:05
Azimuth240.419° WSW
Elevation-48.932°
Doppler factor1
Orbital elements
Apogee altitude999.204 km
Perigee altitude990.417 km
Semi-major axis7,372.947 km
Eccentricity0.0005959
Inclination144.2327°
RAAN56.5578°
Arg. of periapsis243.0232°
True anomaly194.70736°
Mean anomaly194.7247°
Eccentric anomaly194.71603°
Mean motion3.42832 °/min
BSTAR0.00015923
Orbital period105.01 mins
Loading maneuver chart data...
Loading historical data...
Loading historical data...
Loading historical data...
Loading historical data...
Loading historical data...
Loading historical data...
Loading historical data...

ATLAS D DEB Visibility forecast

Observer location: undefined°, undefined

Span
Click to sort rows by Start time (UTC) header in descending order
Start Az.
Max El. time (UTC)
Max El. Az.
Max El.
End time (UTC)
End Az.
6 mins2024-12-21 18:47:58.732Z116.749° SE2024-12-21 18:50:58.732Z148.483° SSE14.639°2024-12-21 18:53:58.732Z180.316° SSW
9 mins2024-12-21 20:26:58.732Z104.247° ESE2024-12-21 20:30:58.732Z166.729° S30.421°2024-12-21 20:35:58.732Z225.125° WSW
9 mins2024-12-21 22:05:58.732Z99.519° ESE2024-12-21 22:09:58.732Z168.47° S40.182°2024-12-21 22:14:58.732Z248.877° W
10 mins2024-12-21 23:44:58.732Z111.354° ESE2024-12-21 23:48:58.732Z169.149° S40.143°2024-12-21 23:54:58.732Z264.918° W
9 mins2024-12-22 01:24:58.732Z141.554° SSE2024-12-22 01:28:58.732Z204.271° SW31.557°2024-12-22 01:33:58.732Z265.33° W
5 mins2024-12-22 03:05:58.732Z183.096° SSW2024-12-22 03:07:58.732Z205.365° SW15.754°2024-12-22 03:10:58.732Z239.408° WSW
|